Flag for Canada Weather past 2 weeks in Laval, Quebec, Canada

Now
73 °F

Partly sunny.


Feels Like: 77 °F
Forecast: N/A
Wind: 7 mph from Southwest

Location: Montreal / Mirabel

Current Time: Jul 3, 2015 at 5:27:12 PM

Latest Report: Jul 3, 2015 at 4:00 PM


Visibility: 45 mi

Pressure: 29.93 "Hg

Humidity: 41%

Dew point: 48 °F

Location of LavalLocation

Historic Weather in Laval — Graph

°F

Laval temperature yesterday

Maximum temperature yesterday: 72 °F (at 3:00 PM)
Minimum temperature yesterday: 54 °F (at 6:00 AM)
Average temperature yesterday: 63 °F

Past Weeks' High & Low Weather Summary

 TemperatureHumidityPressure
High79 °F (Jun 18, 5:00 PM)100% (Jun 18, 11:00 PM)30.19 "Hg (Jun 18, 11:00 PM)
Low45 °F (Jun 20, 4:00 AM)35% (Jun 25, 3:00 PM)29.51 "Hg (Jun 23, 2:00 PM)
Average63 °F75%29.90 "Hg
* Reported Jun 18 4:00 PM — Jul 3 4:00 PM, Laval, Weather by CustomWeather, © 2015

Note: Actual official high and low records may vary slightly from our data, if they occured in-between our weather recording intervals... More about our weather records

Advertising

Laval weather history for previous 24 hours

 ConditionsComfort  
Time TempWeatherWind HumidityBarometerVisibility
4:00 PM
Fri, Jul 3
73 °FPartly sunny.7 mph41%29.93 "Hg45 mi
3:00 PM73 °FPartly sunny.9 mph41%29.94 "Hg45 mi
2:00 PM73 °FMild.9 mph38%29.95 "Hg45 mi
1:00 PM73 °FPartly sunny.9 mph38%29.96 "Hg45 mi
12:00 PM72 °FScattered clouds.9 mph53%29.96 "Hg45 mi
11:00 AM70 °FPassing clouds.8 mph60%29.96 "Hg45 mi
10:00 AM68 °FPassing clouds.6 mph64%29.97 "Hg45 mi
9:00 AM63 °FPassing clouds.5 mph73%29.97 "Hg45 mi
8:00 AM57 °FScattered clouds.6 mph82%29.96 "Hg45 mi
7:00 AM54 °FScattered clouds.3 mph88%29.95 "Hg45 mi
6:00 AM54 °FPassing clouds.5 mph82%29.93 "Hg45 mi
5:00 AM52 °FPassing clouds.3 mph82%29.92 "Hg25 mi
4:00 AM54 °FPassing clouds.3 mph77%29.92 "Hg25 mi
3:00 AM54 °FPassing clouds.5 mph82%29.92 "Hg25 mi
2:00 AM54 °FPassing clouds.3 mph77%29.92 "Hg25 mi
1:00 AM55 °FPassing clouds.5 mph77%29.92 "Hg25 mi
12:00 AM57 °FPassing clouds.5 mph77%29.91 "Hg25 mi
11:00 PM
Thu, Jul 2
59 °FPassing clouds.5 mph72%29.91 "Hg25 mi
10:00 PM61 °FPassing clouds.2 mph68%29.92 "Hg25 mi
9:00 PM63 °FPassing clouds.3 mph64%29.90 "Hg25 mi
8:00 PM66 °FScattered clouds.3 mph56%29.89 "Hg45 mi
7:00 PM68 °FScattered clouds.5 mph53%29.88 "Hg45 mi
6:00 PM70 °FScattered clouds.10 mph46%29.87 "Hg45 mi
5:00 PM72 °FScattered clouds.9 mph44%29.86 "Hg45 mi
Weather by CustomWeather, © 2015

See weather overviewHow to use our weather pages